Back to catalog

CZ-6A DEB

AlivePO
NORAD 60630·DEBRIS·🇨🇳 China

Launched Aug 6, 2024 from Taiyuan Satellite Launch Center

Loading…

Next Passes (next 24 hours)

TLE

FreshSource: Space-Track

Epoch: Sep 14, 2026, 06:39 UTC

1 60630U 24140AF  26257.27713530  .00099610  00000-0  27871-2 0  9998
2 60630  88.2680 183.5834 0056489  95.0134 265.7570 15.34661782113937

Track CZ-6A DEB in real time with AllMySat

Download on the App Store